This is the latest recevied weather packets stored in our database for station/object N4RCT. If no packets are shown the sender has not sent any weather packets the latest 10 day(s).
| Time | Temp. | Humidity | Pressure | Rain* | Wind** | Luminosity | Snow |
|---|---|---|---|---|---|---|---|
| 1777614916 | 12.78° C | 88% | 1012.6 hPa | 0 mm | - | 0 W/m² | - |
| 1777614613 | 12.78° C | 87% | 1012.7 hPa | 0 mm | - | 0 W/m² | - |
| 1777614308 | 12.78° C | 86% | 1012.6 hPa | 0 mm | - | 0 W/m² | - |
| 1777614003 | 12.22° C | 87% | 1012.7 hPa | 0 mm | - | 0 W/m² | - |
| 1777613699 | 12.22° C | 87% | 1012.7 hPa | 0 mm | - | 0 W/m² | - |
| 1777613396 | 12.22° C | 87% | 1012.8 hPa | 0 mm | - | 0 W/m² | - |
| 1777613092 | 12.78° C | 87% | 1012.7 hPa | 0 mm | - | 0 W/m² | - |
| 1777612789 | 12.78° C | 85% | 1012.7 hPa | 0 mm | - | 0 W/m² | - |
| 1777612485 | 12.78° C | 88% | 1012.4 hPa | 0 mm | - | 0 W/m² | - |
| 1777612181 | 12.78° C | 88% | 1012.5 hPa | 0 mm | - | 0 W/m² | - |
| 1777611876 | 12.78° C | 87% | 1012.6 hPa | 0 mm | - | 0 W/m² | - |
| 1777611573 | 12.78° C | 88% | 1012.8 hPa | 0 mm | - | 0 W/m² | - |
| 1777611269 | 12.78° C | 88% | 1012.7 hPa | 0 mm | - | 0 W/m² | - |
| 1777610966 | 13.33° C | 86% | 1012.8 hPa | 0 mm | - | 0 W/m² | - |
| 1777610662 | 13.33° C | 83% | 1012.7 hPa | 0 mm | - | 0 W/m² | - |
| 1777610361 | 12.78° C | 86% | 1012.7 hPa | 0 mm | - | 0 W/m² | - |
| 1777610057 | 12.78° C | 85% | 1012.5 hPa | 0 mm | - | 0 W/m² | - |
| 1777609754 | 12.78° C | 86% | 1012.4 hPa | 0 mm | - | 0 W/m² | - |
| 1777609451 | 12.78° C | 86% | 1012.3 hPa | 0 mm | - | 0 W/m² | - |
| 1777609149 | 12.78° C | 86% | 1012.6 hPa | 0 mm | - | 0 W/m² | - |
| 1777608845 | 12.78° C | 87% | 1012.6 hPa | 0 mm | - | 0 W/m² | - |
| 1777608542 | 12.78° C | 86% | 1012.8 hPa | 0 mm | - | 0 W/m² | - |
| 1777608239 | 12.78° C | 89% | 1012.9 hPa | 0 mm | - | 0 W/m² | - |
| 1777607937 | 12.78° C | 90% | 1012.9 hPa | 0 mm | - | 0 W/m² | - |
| 1777607632 | 12.78° C | 90% | 1012.7 hPa | 0 mm | - | 0 W/m² | - |
* Rain latest hour (hover to see other rain measurements)
** Current wind speed in m/s (hover to see current wind gust speed)